Location: Unspecified
(0.0000°N, 0.0000°E)
Time: 01:54:00
(UTC+00:00)

ACS3 Solar Sail - Pass Details

Date: 19 November 2025
Orbit: 887 x 1000 km, 97.3° (Epoch: 14 December)

Event Time Altitude Azimuth Distance (km) Brightness Sun altitude
Exits shadow 02:13:53 11° 153° (SSE) 2,687 4.5 -48.7°
Drops below altitude 10° 02:14:13 10° 155° (SSE) 2,785 4.6 -48.7°
Sets 02:17:09 0° 168° (SSE) 3,741 5.2 -48.0°
